DW0494 Weather Reports


Display with metric or nautical units.
time (UTC)temp
F
wind
direction
speed
MPH
gust
MPH
rain 1hr
in
rain 24hr
in
rain mn
in
humidity
%
barometer
mb
20260901131904 93 210 2.0 7.0 0.00 0.00 0.00 53 1017.7
20260901131404 92 229 2.0 7.0 0.00 0.00 0.00 53 1017.7
20260901130903 92 235 3.0 7.0 0.00 0.00 0.00 53 1017.7
20260901130404 92 213 2.0 7.0 0.00 0.00 0.00 53 1017.7
20260901125904 93 220 3.0 7.0 0.00 0.00 0.00 52 1017.8
20260901125404 93 225 2.0 8.0 0.00 0.00 0.00 52 1017.8
20260901124904 93 227 2.0 8.0 0.00 0.00 0.00 52 1017.9
20260901124404 93 211 3.0 8.0 0.00 0.00 0.00 52 1017.8
20260901123404 93 232 2.0 7.0 0.00 0.00 0.00 52 1017.9
20260901122904 92 209 2.0 7.0 0.00 0.00 0.00 52 1017.9
20260901122404 93 207 2.0 7.0 0.00 0.00 0.00 51 1018.0
20260901121904 93 220 2.0 9.0 0.00 0.00 0.00 51 1018.1
20260901121404 92 206 2.0 9.0 0.00 0.00 0.00 53 1018.2
20260901120904 92 232 3.0 9.0 0.00 0.00 0.00 52 1018.3
20260901120403 92 229 3.0 7.0 0.00 0.00 0.00 51 1018.4
20260901115903 92 223 2.0 8.0 0.00 0.00 0.00 52 1018.4
20260901115403 92 203 3.0 8.0 0.00 0.00 0.00 53 1018.4
20260901114903 92 223 3.0 7.0 0.00 0.00 0.00 53 1018.5
20260901114403 92 250 3.0 7.0 0.00 0.00 0.00 54 1018.4
20260901113903 91 245 2.0 7.0 0.00 0.00 0.00 56 1018.5
20260901112904 91 221 2.0 8.0 0.00 0.00 0.00 56 1018.5
20260901111904 91 228 3.0 6.0 0.00 0.00 0.00 57 1018.5
20260901111404 91 278 2.0 7.0 0.00 0.00 0.00 57 1018.6
20260901110904 92 255 2.0 7.0 0.00 0.00 0.00 57 1018.6
20260901110404 91 198 2.0 8.0 0.00 0.00 0.00 58 1018.6
20260901105404 91 212 2.0 8.0 0.00 0.00 0.00 59 1018.7
20260901104903 91 203 2.0 7.0 0.00 0.00 0.00 59 1018.7
20260901104404 91 172 2.0 7.0 0.00 0.00 0.00 58 1018.8
20260901102904 91 219 3.0 7.0 0.00 0.00 0.00 56 1018.8
20260901102404 91 237 2.0 7.0 0.00 0.00 0.00 56 1018.8
20260901101404 90 195 3.0 8.0 0.00 0.00 0.00 54 1019.0
20260901100904 91 243 3.0 8.0 0.00 0.00 0.00 54 1019.0
20260901100404 91 243 2.0 6.0 0.00 0.00 0.00 54 1019.1
20260901095403 91 259 3.0 7.0 0.00 0.00 0.00 54 1019.0
20260901094404 92 172 2.0 7.0 0.00 0.00 0.00 53 1019.0
20260901093904 92 204 2.0 7.0 0.00 0.00 0.00 53 1019.0
20260901093404 92 191 3.0 8.0 0.00 0.00 0.00 52 1018.9
20260901092904 92 134 2.0 8.0 0.00 0.00 0.00 50 1019.0
20260901092403 92 223 2.0 6.0 0.00 0.00 0.00 50 1019.0
20260901091904 91 214 2.0 5.0 0.00 0.00 0.00 53 1019.1
20260901091404 91 211 2.0 7.0 0.00 0.00 0.00 54 1019.1
20260901090904 90 205 1.0 7.0 0.00 0.00 0.00 54 1019.2
20260901090404 90 231 2.0 7.0 0.00 0.00 0.00 55 1019.2
20260901085403 90 248 1.0 7.0 0.00 0.00 0.00 55 1019.2
20260901084903 90 220 2.0 7.0 0.00 0.00 0.00 54 1019.1
20260901084404 89 231 1.0 5.0 0.00 0.00 0.00 57 1019.1
20260901083904 88 267 0.0 5.0 0.00 0.00 0.00 58 1019.1
20260901083404 88 326 2.0 5.0 0.00 0.00 0.00 57 1019.1
20260901082904 88 178 1.0 3.0 0.00 0.00 0.00 58 1019.1
20260901082404 87 272 0.0 3.0 0.00 0.00 0.00 59 1019.1
20260901081904 88 270 1.0 3.0 0.00 0.00 0.00 58 1019.1
20260901081404 87 243 1.0 3.0 0.00 0.00 0.00 60 1019.0
20260901080403 87 275 1.0 3.0 0.00 0.00 0.00 61 1019.2
20260901075903 87 285 1.0 3.0 0.00 0.00 0.00 62 1019.2
20260901075404 87 286 1.0 3.0 0.00 0.00 0.00 63 1019.1
20260901074403 89 198 1.0 3.0 0.00 0.00 0.00 61 1019.1
20260901073903 88 171 1.0 3.0 0.00 0.00 0.00 62 1019.1
20260901073404 87 206 1.0 2.0 0.00 0.00 0.00 65 1019.2
20260901072404 74 0 0.0 0.0 0.00 0.00 0.00 74 1019.1
20260901071403 74 0 0.0 0.0 0.00 0.00 0.00 74 1019.0
20260901070903 74 0 0.0 0.0 0.00 0.00 0.00 74 1018.9
20260901070404 74 0 0.0 0.0 0.00 0.00 0.00 74 1018.8
20260901065404 74 0 0.0 0.0 0.00 0.00 0.00 74 1018.8
20260901064903 74 0 0.0 0.0 0.00 0.00 0.00 74 1018.8
20260901064403 74 0 0.0 0.0 0.00 0.00 0.00 74 1018.8
20260901063903 74 0 0.0 0.0 0.00 0.00 0.00 74 1018.8
20260901063404 74 0 0.0 0.0 0.00 0.00 0.00 74 1018.6
20260901062904 74 0 0.0 0.0 0.00 0.00 0.00 74 1018.7
20260901062404 74 0 0.0 0.0 0.00 0.00 0.00 74 1018.7
20260901061904 74 0 0.0 0.0 0.00 0.00 0.00 74 1018.8
20260901061404 74 0 0.0 0.0 0.00 0.00 0.00 74 1018.8
20260901060404 74 0 0.0 0.0 0.00 0.00 0.00 74 1018.8
20260901055903 74 0 0.0 0.0 0.00 0.00 0.00 74 1019.0
20260901054904 74 0 0.0 0.0 0.00 0.00 0.00 74 1018.9
20260901054404 74 0 0.0 0.0 0.00 0.00 0.00 74 1018.9
20260901053403 74 0 0.0 0.0 0.00 0.00 0.00 74 1018.9
20260901052403 74 0 0.0 0.0 0.00 0.00 0.00 74 1018.9
20260901051903 74 0 0.0 0.0 0.00 0.00 0.00 74 1018.9
20260901051403 74 0 0.0 0.0 0.00 0.00 0.00 74 1018.9
20260901045904 74 0 0.0 0.0 0.00 0.00 0.00 74 1018.8
20260901045404 74 0 0.0 0.0 0.00 0.00 0.00 74 1018.8
20260901044903 74 0 0.0 0.0 0.00 0.00 0.00 74 1018.7
20260901043903 74 0 0.0 0.0 0.00 0.00 0.00 74 1018.6
20260901043403 74 0 0.0 0.0 0.00 0.00 0.00 74 1018.5
20260901042403 74 0 0.0 0.0 0.00 0.00 0.00 74 1018.3
20260901041903 74 0 0.0 0.0 0.00 0.00 0.00 74 1018.3
20260901040904 74 0 0.0 0.0 0.00 0.00 0.00 74 1018.2
20260901040404 74 0 0.0 0.0 0.00 0.00 0.00 74 1018.1
20260901035403 74 0 0.0 0.0 0.00 0.00 0.00 74 1017.8
20260901034904 74 0 0.0 0.0 0.00 0.00 0.00 74 1017.9
20260901034404 74 0 0.0 0.0 0.00 0.00 0.00 74 1018.0
20260901033903 74 0 0.0 0.0 0.00 0.00 0.00 74 1017.9
20260901033403 74 0 0.0 1.0 0.00 0.00 0.00 74 1017.8
20260901032903 74 2 1.0 1.0 0.00 0.00 0.00 74 1017.8
20260901032404 74 52 1.0 2.0 0.00 0.00 0.00 74 1017.7
20260901031404 74 60 0.0 0.0 0.00 0.00 0.00 75 1017.9
20260901030904 74 60 0.0 0.0 0.00 0.00 0.00 74 1017.9
20260901030403 75 60 0.0 0.0 0.00 0.00 0.00 74 1017.9
20260901025904 74 60 0.0 0.0 0.00 0.00 0.00 75 1018.0
20260901025404 74 60 0.0 0.0 0.00 0.00 0.00 75 1018.1
20260901024904 74 60 0.0 1.0 0.00 0.00 0.00 76 1018.1
20260901024404 74 60 0.0 1.0 0.00 0.00 0.00 76 1018.0
20260901023403 75 60 0.0 1.0 0.00 0.00 0.00 75 1018.1
20260901022404 75 60 1.0 2.0 0.00 0.00 0.00 76 1018.0
20260901021904 74 60 1.0 2.0 0.00 0.00 0.00 76 1018.0
20260901021404 75 63 1.0 2.0 0.00 0.00 0.00 76 1018.0
20260901020904 75 65 1.0 2.0 0.00 0.00 0.00 76 1018.1
20260901020404 75 61 1.0 2.0 0.00 0.00 0.00 75 1018.1
20260901015404 75 49 0.0 2.0 0.00 0.00 0.00 76 1018.3
20260901014403 75 53 1.0 2.0 0.00 0.00 0.00 77 1018.3
20260901013904 75 39 1.0 2.0 0.00 0.00 0.00 77 1018.4
20260901013403 75 44 1.0 3.0 0.00 0.00 0.00 77 1018.4
20260901012403 75 58 1.0 3.0 0.00 0.00 0.00 77 1018.5
20260901011904 74 45 2.0 3.0 0.00 0.00 0.00 77 1018.5
20260901011403 74 57 1.0 1.0 0.00 0.00 0.00 78 1018.5
20260901010903 74 59 0.0 1.0 0.00 0.00 0.00 79 1018.6
20260901010403 74 59 0.0 1.0 0.00 0.00 0.00 80 1018.7
20260901005403 74 59 0.0 0.0 0.00 0.00 0.00 80 1018.7
20260901004904 74 59 0.0 0.0 0.00 0.00 0.00 79 1018.7
20260901004404 74 59 0.0 0.0 0.00 0.00 0.00 80 1018.7
20260901003904 74 59 0.0 0.0 0.00 0.00 0.00 80 1018.7
20260901003404 74 59 0.0 0.0 0.00 0.00 0.00 79 1018.8
20260901002904 74 59 0.0 0.0 0.00 0.00 0.00 79 1018.8
20260901001903 74 59 0.0 1.0 0.00 0.00 0.00 79 1018.6
20260901001404 74 59 0.0 2.0 0.00 0.00 0.00 79 1018.5
20260901000904 74 59 0.0 2.0 0.00 0.00 0.00 80 1018.4
20260901000405 74 60 1.0 2.0 0.00 0.00 0.00 79 1018.2
20260831235903 74 42 0.0 0.0 0.00 0.00 0.00 78 1018.2
20260831235403 74 42 0.0 0.0 0.00 0.00 0.00 79 1018.2
20260831234403 75 42 0.0 1.0 0.00 0.00 0.00 78 1018.3
20260831233404 75 42 0.0 2.0 0.00 0.00 0.00 78 1018.5
20260831232904 75 47 1.0 2.0 0.00 0.00 0.00 78 1018.5
20260831232404 75 72 0.0 1.0 0.00 0.00 0.00 78 1018.5
20260831231904 75 72 0.0 1.0 0.00 0.00 0.00 78 1018.6
20260831231404 75 72 0.0 1.0 0.00 0.00 0.00 79 1018.5
20260831230404 75 84 0.0 1.0 0.00 0.00 0.00 79 1018.6
20260831225903 75 84 0.0 1.0 0.00 0.00 0.00 79 1018.7
20260831225403 74 84 0.0 1.0 0.00 0.00 0.00 79 1018.8
20260831224904 74 84 0.0 1.0 0.00 0.00 0.00 79 1018.9
20260831223904 75 84 0.0 0.0 0.00 0.00 0.00 78 1018.8
20260831223404 75 84 0.0 0.0 0.00 0.00 0.00 78 1018.7
20260831222903 75 84 0.0 0.0 0.00 0.00 0.00 78 1018.7
20260831222403 75 84 0.0 1.0 0.00 0.00 0.00 78 1018.6
20260831221903 75 84 0.0 1.0 0.00 0.00 0.00 78 1018.6
20260831220404 75 84 0.0 0.0 0.00 0.00 0.00 77 1018.8
20260831215904 75 84 0.0 0.0 0.00 0.00 0.00 77 1018.9
20260831215403 75 84 0.0 0.0 0.00 0.00 0.00 77 1018.9
20260831214903 75 84 0.0 0.0 0.00 0.00 0.00 77 1018.9
20260831214403 75 84 0.0 0.0 0.00 0.00 0.00 77 1018.9
20260831213404 75 84 0.0 1.0 0.00 0.00 0.00 77 1019.0
20260831212904 76 84 0.0 1.0 0.00 0.00 0.00 76 1019.0
20260831212404 76 84 0.0 1.0 0.00 0.00 0.00 76 1018.9
20260831211903 76 84 0.0 1.0 0.00 0.00 0.00 76 1018.9
20260831211403 76 84 0.0 2.0 0.00 0.00 0.00 76 1019.0
20260831210904 76 84 1.0 2.0 0.00 0.00 0.00 76 1019.0
20260831205404 76 101 0.0 0.0 0.00 0.00 0.00 76 1019.0
20260831204404 76 101 0.0 0.0 0.00 0.00 0.00 75 1019.0
20260831203903 76 101 0.0 0.0 0.00 0.00 0.00 75 1019.0
20260831203403 76 101 0.0 0.0 0.00 0.00 0.00 75 1019.1
20260831202904 76 101 0.0 0.0 0.00 0.00 0.00 75 1019.2
20260831202404 76 101 0.0 0.0 0.00 0.00 0.00 75 1019.1
20260831201403 76 101 0.0 0.0 0.00 0.00 0.00 74 1019.0
20260831200903 76 101 0.0 1.0 0.00 0.00 0.00 74 1018.9
20260831200404 76 101 0.0 1.0 0.00 0.00 0.00 75 1018.8
20260831195904 76 101 0.0 0.0 0.00 0.00 0.00 75 1018.7
20260831195403 76 101 0.0 0.0 0.00 0.00 0.00 75 1018.8
20260831194904 76 101 0.0 0.0 0.00 0.00 0.00 75 1018.8
20260831194404 76 101 0.0 1.0 0.00 0.00 0.00 75 1018.7
20260831193904 76 101 0.0 1.0 0.00 0.00 0.00 75 1018.7
20260831193403 76 101 0.0 1.0 0.00 0.00 0.00 75 1018.6
20260831192904 76 101 0.0 1.0 0.00 0.00 0.00 75 1018.5
20260831192404 76 101 0.0 1.0 0.00 0.00 0.00 75 1018.6
20260831191904 76 101 0.0 0.0 0.00 0.00 0.00 75 1018.6
20260831191404 77 101 0.0 0.0 0.00 0.00 0.00 74 1018.5
20260831190403 77 101 0.0 0.0 0.00 0.00 0.00 74 1018.5
20260831185904 77 101 0.0 0.0 0.00 0.00 0.00 73 1018.5
20260831185404 77 101 0.0 0.0 0.00 0.00 0.00 73 1018.5
20260831184904 77 101 0.0 0.0 0.00 0.00 0.00 73 1018.4
20260831184404 77 101 0.0 0.0 0.00 0.00 0.00 73 1018.4
20260831183903 77 101 0.0 1.0 0.00 0.00 0.00 73 1018.5
20260831183405 77 101 0.0 1.0 0.00 0.00 0.00 73 1018.4
20260831182904 77 101 0.0 1.0 0.00 0.00 0.00 73 1018.4
20260831182404 77 101 0.0 1.0 0.00 0.00 0.00 72 1018.4
20260831181904 78 101 0.0 1.0 0.00 0.00 0.00 72 1018.3
20260831181404 78 101 0.0 1.0 0.00 0.00 0.00 72 1018.3
20260831180904 78 102 0.0 1.0 0.00 0.00 0.00 71 1018.3
20260831180403 78 101 0.0 1.0 0.00 0.00 0.00 71 1018.2
20260831175904 78 186 0.0 0.0 0.00 0.00 0.00 71 1018.2
20260831174903 79 210 0.0 0.0 0.00 0.00 0.00 71 1018.0
20260831174403 79 210 0.0 1.0 0.00 0.00 0.00 71 1018.0
20260831173403 79 210 0.0 1.0 0.00 0.00 0.00 70 1018.0
20260831172404 80 220 0.0 3.0 0.00 0.00 0.00 70 1017.8
20260831171903 80 204 1.0 3.0 0.00 0.00 0.00 69 1017.8
20260831171404 81 160 0.0 0.0 0.00 0.00 0.00 68 1017.8
20260831170904 81 161 0.0 3.0 0.00 0.00 0.00 68 1017.7
20260831170403 81 213 1.0 3.0 0.00 0.00 0.00 68 1017.7
20260831165904 82 216 0.0 3.0 0.00 0.00 0.00 67 1017.7
20260831165404 82 175 0.0 3.0 0.00 0.00 0.00 67 1017.7
20260831164903 83 221 1.0 3.0 0.00 0.00 0.00 66 1017.6
20260831164403 83 210 1.0 3.0 0.00 0.00 0.00 65 1017.6
20260831162904 85 211 3.0 6.0 0.00 0.00 0.00 62 1017.4
20260831162404 86 201 1.0 3.0 0.00 0.00 0.00 61 1017.3
20260831160903 86 201 2.0 7.0 0.00 0.00 0.00 60 1017.3
20260831160403 87 213 2.0 8.0 0.00 0.00 0.00 60 1017.3
20260831155904 87 201 3.0 8.0 0.00 0.00 0.00 59 1017.3
20260831155404 88 217 2.0 6.0 0.00 0.00 0.00 59 1017.3
20260831154905 88 214 3.0 6.0 0.00 0.00 0.00 58 1017.4
20260831153403 90 205 3.0 6.0 0.00 0.00 0.00 55 1017.5
20260831152904 90 169 2.0 6.0 0.00 0.00 0.00 54 1017.5
20260831152403 90 203 3.0 6.0 0.00 0.00 0.00 53 1017.5
20260831151403 90 215 1.0 7.0 0.00 0.00 0.00 53 1017.5
20260831150903 90 217 3.0 7.0 0.00 0.00 0.00 53 1017.5
20260831150404 90 184 1.0 7.0 0.00 0.00 0.00 54 1017.5
20260831145905 90 132 3.0 9.0 0.00 0.00 0.00 54 1017.4
20260831145403 90 216 3.0 9.0 0.00 0.00 0.00 54 1017.5
20260831144904 90 206 2.0 7.0 0.00 0.00 0.00 54 1017.4
20260831144404 90 165 2.0 8.0 0.00 0.00 0.00 55 1017.5
20260831143904 90 204 5.0 9.0 0.00 0.00 0.00 55 1017.4
20260831143404 91 217 5.0 9.0 0.00 0.00 0.00 53 1017.5
20260831142904 91 205 2.0 8.0 0.00 0.00 0.00 53 1017.6
20260831142404 91 205 4.0 8.0 0.00 0.00 0.00 52 1017.6
20260831141904 91 213 2.0 8.0 0.00 0.00 0.00 52 1017.6
20260831141404 92 224 2.0 6.0 0.00 0.00 0.00 51 1017.6
20260831140904 92 196 1.0 6.0 0.00 0.00 0.00 51 1017.7
20260831140404 91 195 2.0 9.0 0.00 0.00 0.00 52 1017.8
20260831135404 91 213 4.0 9.0 0.00 0.00 0.00 52 1017.7
20260831134904 91 205 3.0 9.0 0.00 0.00 0.00 51 1017.9
20260831134404 91 203 4.0 9.0 0.00 0.00 0.00 51 1017.8
20260831133904 91 200 3.0 9.0 0.00 0.00 0.00 51 1017.9
20260831133404 91 202 3.0 9.0 0.00 0.00 0.00 51 1017.9
20260831132904 91 217 5.0 12.0 0.00 0.00 0.00 52 1017.9
20260831132404 91 215 5.0 12.0 0.00 0.00 0.00 51 1017.9